Regional Weather Roundup
Issued by NWS

Home | Current Version | Previous Version | Graphics & Text | Print | Product List | Glossary On
Versions: 1 2 3 4 5 6 7 8 9 10 11 12 13 14 15 16 17 18 19 20 21 22 23 24 25 26 27 28 29 30 31 32 33 34 35 36 37 38 39 40 41 42 43 44 45 46 47 48 49 50
044
ASUS45 KCYS 101110
RWRWY

WYOMING REGIONAL WEATHER ROUNDUP
NATIONAL WEATHER SERVICE CHEYENNE WY
400 AM MST WED FEB 10 2016

NOTE:  "FAIR" INDICATES FEW OR NO CLOUDS BELOW 12,000 FEET
WITH NO SIGNIFICANT WEATHER AND/OR OBSTRUCTIONS TO VISIBILITY.

WYZ001-101200-
YELLOWSTONE NATIONAL PARK

CITY           SKY/WX    TMP DP  RH WIND       PRES   REMARKS
LK YELLOWSTONE   N/A      4   0  83 CALM      30.39F
W YELLOWSTONE  NOT AVBL

$$
WYZ002>013-054>058-071-098>099-101200-
NORTHERN WYOMING

CITY           SKY/WX    TMP DP  RH WIND       PRES   REMARKS
JACKSON        FAIR       1   1 100 N8        30.41F WCI -12
CODY           FAIR      43  10  26 NE13G18   30.09F
GREYBULL       FAIR      20  18  92 S3        30.14F
WORLAND        FAIR      19  18  95 CALM      30.14F
SHERIDAN       FAIR      35  18  49 NE7       29.99F WCI  29
BUFFALO        FAIR      58   9  14 NW12      30.02F
GILLETTE       FAIR      42  21  43 W13       29.99F
HULETT         FAIR      41  23  48 SW9G18    29.99R
NEWCASTLE      FAIR      28  23  80 CALM      30.02S

$$
WYZ014>020-022>026-101>103-101200-
CENTRAL WYOMING

CITY           SKY/WX    TMP DP  RH WIND       PRES   REMARKS
BIG PINEY      FAIR      11   7  84 NW3       30.37F
PINEDALE       FAIR      10   9  92 W5        30.38F WCI   2
DUBOIS         FAIR      28  10  47 NW18      30.28F WCI  16
LANDER         FAIR      25  14  63 VRB3      30.19F
RIVERTON       FAIR      23  18  81 E6        30.22F WCI  16
CASPER         FAIR      35  20  54 SW23G30   30.17F WCI  23
DOUGLAS        FAIR      36  23  59 NW7         N/A  WCI  30

$$
WYZ021-027>030-104>119-101200-
SOUTHERN WYOMING

CITY           SKY/WX    TMP DP  RH WIND       PRES   REMARKS
EVANSTON       FAIR      25  16  68 S9        30.39F WCI  15
FORT BRIDGER   SUNNY     34  10  37 W14       30.39F WCI  24
ROCK SPRINGS   FAIR      25  16  68 W10       30.36F WCI  15
DIXON          FAIR       6   2  86 CALM      30.44F
RAWLINS        FAIR      35  16  45 NE9G20    30.31F WCI  28
SARATOGA       FAIR      27  14  59 S12G17    30.35F WCI  16
LARAMIE        FAIR      32  15  49 W14       30.25F WCI  22
CHEYENNE       FAIR      39  16  39 W16       30.15F WCI  30
TORRINGTON     FAIR      39  23  52 NW14      30.06F WCI  31
PINE BLUFFS    FAIR      34  21  60 W5        30.12F WCI  30

$$




USA.gov is the U.S. government's official web portal to all federal, state and local government web resources and services.